Retour au catalogue

STARLINK-30832

ActifCommunicationsVLEO
NORAD 58354·PAYLOAD·🇺🇸 United States

Lancé Nov 18, 2023 depuis Cape Canaveral Space Force Station

Loading…

Prochains Passages (prochaines 24 heures)

TLE

FraisSource: CelesTrak SupGP

Époque: Sep 14, 2026, 21:05 UTC

1 58354C 23177D   26257.87895833 -.00045084  00000+0 -16326-2 0  2577
2 58354  43.0035   2.6767 0001543 267.2392 156.5360 15.27606641    19

Suivez STARLINK-30832 en temps réel avec AllMySat

Download on the App Store